TimePST,TemperatureF,Dew PointF,Humidity,Sea Level PressureIn,VisibilityMPH,Wind Direction,Wind SpeedMPH,Gust SpeedMPH,PrecipitationIn,Events,Conditions,WindDirDegrees,DateUTC
12:58 AM,36.0,35.8,99,29.94,10.0,South,4.6,-,N/A,,Clear,170,2013-01-23 08:58:00
1:58 AM,36.0,35.8,99,29.95,10.0,North,8.1,-,N/A,,Clear,350,2013-01-23 09:58:00
2:58 AM,35.8,35.6,99,29.98,10.0,SSW,5.8,-,N/A,,Clear,200,2013-01-23 10:58:00
3:58 AM,36.3,36.0,99,29.94,10.0,South,5.8,-,N/A,,Clear,170,2013-01-23 11:58:00
4:58 AM,36.5,36.1,99,29.93,10.0,Variable,1.2,-,N/A,,Clear,0,2013-01-23 12:58:00
5:58 AM,36.3,36.1,99,29.93,10.0,West,2.3,-,N/A,,Clear,260,2013-01-23 13:58:00
6:58 AM,36.1,36.0,99,29.91,10.0,West,5.8,-,N/A,,Clear,270,2013-01-23 14:58:00
7:58 AM,36.5,36.3,99,29.89,10.0,NNW,1.2,-,N/A,,Clear,340,2013-01-23 15:58:00
8:58 AM,37.0,36.9,99,29.90,10.0,Calm,Calm,-,N/A,,Clear,0,2013-01-23 16:58:00
9:58 AM,38.1,37.8,99,29.91,10.0,Calm,Calm,-,N/A,,Clear,0,2013-01-23 17:58:00
10:24 AM,39.2,37.4,93,29.91,10.0,South,2.3,-,N/A,,Clear,170,2013-01-23 18:24:00
10:58 AM,39.0,38.8,99,29.93,10.0,Variable,2.3,-,0.00,Rain,Light Rain,0,2013-01-23 18:58:00
11:58 AM,39.7,38.3,95,29.89,10.0,East,1.2,-,0.01,Rain,Light Rain,80,2013-01-23 19:58:00
12:08 PM,39.2,39.2,100,29.86,10.0,ESE,4.6,-,N/A,Rain,Light Rain,110,2013-01-23 20:08:00
12:28 PM,39.2,39.2,100,29.87,10.0,West,2.3,-,N/A,Rain,Light Rain,260,2013-01-23 20:28:00
12:58 PM,39.7,39.6,99,29.88,7.0,Variable,3.5,-,0.02,Rain,Light Rain,0,2013-01-23 20:58:00
1:58 PM,39.7,39.6,99,29.88,9.0,SSW,4.6,-,0.02,Rain,Light Rain,210,2013-01-23 21:58:00
2:33 PM,39.2,39.2,100,29.87,7.0,WSW,3.5,-,N/A,Rain,Light Rain,240,2013-01-23 22:33:00
2:58 PM,39.9,39.7,99,29.90,8.0,SW,3.5,-,0.04,Rain,Light Rain,220,2013-01-23 22:58:00
3:18 PM,39.2,39.2,100,29.89,10.0,SW,4.6,-,N/A,Rain,Light Rain,230,2013-01-23 23:18:00
3:25 PM,39.2,39.2,100,29.90,10.0,SW,5.8,-,N/A,Rain,Light Rain,220,2013-01-23 23:25:00
3:58 PM,40.1,39.9,99,29.93,10.0,SSW,8.1,-,0.02,Rain,Light Rain,210,2013-01-23 23:58:00
4:58 PM,40.8,40.6,99,29.96,10.0,South,15.0,-,0.01,Rain,Light Rain,190,2013-01-24 00:58:00
5:00 PM,41.0,41.0,100,29.94,10.0,South,12.7,-,N/A,,Overcast,190,2013-01-24 01:00:00
5:36 PM,41.0,41.0,100,29.95,10.0,South,12.7,-,N/A,,Overcast,180,2013-01-24 01:36:00
5:58 PM,40.5,40.3,99,29.97,10.0,South,12.7,-,0.00,,Overcast,190,2013-01-24 01:58:00
6:58 PM,40.8,40.6,99,30.01,10.0,SSW,9.2,-,N/A,,Overcast,200,2013-01-24 02:58:00
7:58 PM,40.6,40.5,99,30.05,10.0,SSW,8.1,-,N/A,,Overcast,210,2013-01-24 03:58:00
8:58 PM,40.5,40.1,99,30.08,10.0,South,10.4,-,N/A,,Mostly Cloudy,190,2013-01-24 04:58:00
9:58 PM,40.5,40.3,99,30.12,10.0,SSW,13.8,-,N/A,,Overcast,200,2013-01-24 05:58:00
10:43 PM,41.0,39.2,93,30.12,10.0,South,9.2,-,N/A,,Overcast,190,2013-01-24 06:43:00
10:58 PM,39.2,39.2,100,30.15,10.0,South,10.4,-,N/A,,Mostly Cloudy,180,2013-01-24 06:58:00
11:03 PM,39.2,39.2,100,30.13,10.0,South,9.2,-,N/A,,Overcast,180,2013-01-24 07:03:00
11:58 PM,38.7,38.3,99,30.18,10.0,South,10.4,-,N/A,,Clear,180,2013-01-24 07:58:00